Louisville, KY

7:57 PM EDT on May 25, 2017 (GMT -0400)
Louisville International-Standiford

Weather History for KSDF - January, 2015

Change the Weather History Date:

Sunday, January 11, 2015

  Actual Average Record
Temperature  
Mean Temperature 32 °F 35 °F  
Max Temperature 45 °F 43 °F 69 °F (1890)
Min Temperature 19 °F 27 °F -8 °F (1977)
Degree Days  
Heating Degree Days 33 30  
Month to date heating degree days 403 330  
Since 1 July heating degree days 2025 1906  
Cooling Degree Days 0 0  
Month to date cooling degree days 0 0  
Year to date cooling degree days 0 0  
Moisture  
Dew Point 18 °F    
Average Humidity 56    
Maximum Humidity 85    
Minimum Humidity 27    
Precipitation  
Precipitation 0.06 in 0.11 in 1.90 in (1913)
Month to date precipitation 0.44 1.17  
Year to date precipitation 0.44 1.17  
Snow  
Snow 0.00 in 0.10 in 8.20 in (1912)
Month to date snowfall T 1.2  
Since 1 July snowfall 3.7 4.0  
Snow Depth 0.00 in    
Sea Level Pressure  
Sea Level Pressure 30.41 in    
Wind  
Wind Speed 5 mph (SE)    
Max Wind Speed 14 mph    
Max Gust Speed 17 mph    
Visibility 10 miles    
Events Rain    
T = Trace of Precipitation, MM = Missing Value Source: NWS Daily Summary

Daily Weather History Graph

Daily Weather History Graph

Search for Another Location

Airport or City:

Trip Planner

Search our weather history database for the weather conditions in past years. The results will help you decide how hot, cold, wet, or windy it might be!

Date:

Astronomy

Jan. 11, 2015 Rise Set
Actual Time 7:59 AM EST 5:42 PM EST
Civil Twilight 7:30 AM EST 6:11 PM EST
Nautical Twilight 6:57 AM EST 6:44 PM EST
Astronomical Twilight 6:25 AM EST 7:16 PM EST
Moon 11:59 PM EST (1/11) 11:19 AM EST (1/11)
Length of Visible Light 10h 41m
Length of Day
9h 43m
Waning Gibbous, 66% of the Moon is Illuminated
Jan 11
Waning Gibbous
Jan 13
Last Quarter
Jan 20
New
Jan 26
First Quarter
Feb 3
Full

Hourly Weather History & Observations

Time (EST) Temp. Windchill Dew Point Humidity Pressure Visibility Wind Dir Wind Speed Gust Speed Precip Events Conditions
12:56 AM 19.9 °F 12.1 °F 5.0 °F 52% 30.48 in 10.0 mi SSE 5.8 mph - N/A   Mostly Cloudy
1:56 AM 19.9 °F 10.1 °F 6.1 °F 55% 30.47 in 10.0 mi SE 8.1 mph - N/A   Scattered Clouds
2:56 AM 21.9 °F 14.5 °F 7.0 °F 53% 30.48 in 10.0 mi SE 5.8 mph - N/A   Mostly Cloudy
3:56 AM 24.1 °F 18.2 °F 8.1 °F 51% 30.47 in 10.0 mi ESE 4.6 mph - N/A   Overcast
4:56 AM 25.0 °F 18.1 °F 7.0 °F 46% 30.45 in 10.0 mi SE 5.8 mph - N/A   Overcast
5:56 AM 27.0 °F 21.6 °F 8.1 °F 45% 30.45 in 10.0 mi SSE 4.6 mph - N/A   Overcast
6:56 AM 27.0 °F 20.5 °F 9.0 °F 47% 30.45 in 10.0 mi SE 5.8 mph - N/A   Overcast
7:56 AM 28.0 °F 20.0 °F 10.0 °F 47% 30.45 in 10.0 mi SE 8.1 mph - N/A   Overcast
8:56 AM 28.9 °F 21.9 °F 12.0 °F 49% 30.45 in 10.0 mi SE 6.9 mph - N/A   Overcast
9:56 AM 32.0 °F 24.8 °F 12.0 °F 44% 30.45 in 10.0 mi SE 8.1 mph - N/A   Overcast
10:56 AM 35.6 °F 31.7 °F 12.2 °F 38% 30.44 in 10.0 mi SSE 4.6 mph - N/A   Overcast
11:56 AM 39.9 °F 35.8 °F 12.9 °F 33% 30.43 in 10.0 mi SSE 5.8 mph - N/A   Overcast
12:56 PM 41.0 °F 37.1 °F 14.0 °F 33% 30.40 in 10.0 mi SSE 5.8 mph - N/A   Overcast
1:56 PM 45.0 °F 41.2 °F 12.0 °F 26% 30.38 in 10.0 mi Variable 6.9 mph - N/A   Overcast
2:56 PM 44.1 °F 39.0 °F 19.9 °F 38% 30.36 in 10.0 mi SSW 9.2 mph - 0.00 in Rain Light Rain
3:56 PM 42.1 °F 40.2 °F 27.0 °F 55% 30.36 in 10.0 mi SSW 3.5 mph - 0.00 in Rain Light Rain
4:56 PM 41.0 °F 38.0 °F 28.0 °F 60% 30.36 in 10.0 mi South 4.6 mph - 0.00 in Rain Light Rain
5:56 PM 39.9 °F - 28.0 °F 63% 30.37 in 10.0 mi Calm Calm - 0.00 in   Overcast
6:56 PM 39.9 °F - 28.0 °F 63% 30.38 in 10.0 mi Calm Calm - N/A   Overcast
7:56 PM 39.0 °F - 30.0 °F 70% 30.37 in 10.0 mi Calm Calm - 0.00 in Rain Light Rain
8:56 PM 37.9 °F 35.5 °F 32.0 °F 79% 30.37 in 9.0 mi ENE 3.5 mph - 0.00 in Rain Light Rain
9:15 PM 37.9 °F 34.4 °F 32.0 °F 79% 30.34 in 9.0 mi East 4.6 mph - 0.01 in Rain Light Rain
9:56 PM 37.0 °F 31.6 °F 33.1 °F 86% 30.34 in 7.0 mi ESE 6.9 mph - 0.01 in Rain Light Rain
10:56 PM 37.0 °F 34.5 °F 34.0 °F 89% 30.32 in 6.0 mi SE 3.5 mph - 0.01 in Rain Light Rain
11:56 PM 37.0 °F - 34.0 °F 89% 30.30 in 5.0 mi Calm Calm - 0.03 in Rain Rain